Showing default

PUNCH-WFI01, 63179

Orbit data source: Space-Track

PUNCH-WFI01, 63179 is an American payload satellite in SSO that was launched on Wed, 12 Mar 2025 UTC via an FALCON 9 launch vehicle from the Air Force Western Test Range (AFWTR). Payload-class satellites include a variety of spacecraft equipped with specific instruments for various scientific and technological missions. These include communications satellites like Starlink; space stations such as the ISS; scientific satellites like the Hubble; Earth observation satellites from companies like Planet Labs, Umbra, and HawkEye 360; GPS; miniature CubeSats for education and research; and military/defense satellites.

Loading next visibility...
Identifier
63179, 2025-047B
Orbit
SSO
Country
Flag of USUS
Related business
Manufacturer
SWRI
Mission
Operational Civil Astronomy
Bus & Motor
PUNCH, Unknown motor
Mass
64 kg wet, 64 kg dry
Launch date (UTC)
2025-03-12 (1 year ago)
Launch vehicle
FALCON 9
Launch site
Air Force Western Test Range (AFWTR)
Object type
Payload
Rocket body
Debris
Shape & HBR
Box + 1 Pan, 1.9 m
Radar Cross Section
0.625 m², Medium (>0.1 m² and < 1m²)

Expand to show TLE details & history
Last TLE update: 10 hours ago

TLE from 10 hours ago
0 PUNCH-WFI01
1 63179U 25047B   26171.44887147  .00000395  00000-0  67085-4 0  9991
2 63179  97.9584 356.7151 0009423 159.2083 200.9511 14.74351923 68544
Epoch: 2026-06-20T10:46Z
TLE epoch observation values (Epoch: 2026-06-20T10:46:22.495Z)
Latitude
0.00003°
Longitude
-73.54197°
Altitude
656.406 km
Speed
7.526 km/s
True Right ascension
23h 46m 51s
True Declination
0° 00' 00"
Sunlit
Object was in daylight at epoch
Visualization orbit readout
Latitude
Unknown
Longitude
Unknown
Altitude
Unknown
Speed
Unknown
Apparent Right ascension
Unknown
Apparent Declination
Unknown
Sunlit
N/A
Visualization observer readout
Local Sidereal Time
07:23:27
Azimuth
Unknown
Elevation
Unknown
Doppler factor
Unknown
Orbital elements
Apogee altitude
650.877 km
Perigee altitude
637.643 km
Semi-major axis
7,022.397 km
Eccentricity
0.00094
Inclination
97.9584°
RAAN
356.7151°
Arg. of periapsis
159.2083°
True anomaly
200.91253°
Mean anomaly
200.9511°
Eccentric anomaly
200.93181°
Mean motion
3.68821 °/min
Orbital period
97.61 mins
BSTAR
0.000067085
Loading maneuver chart data...
Computing Atmospheric mass density...
Loading historical data...
Loading historical data...
Loading historical data...
Loading historical data...
Loading historical data...
Loading historical data...
Loading historical data...
Other satellites on launch #47 in the year 2025 (2025-03-12 UTC)

Documentation

Showing up to 5 results
|